Theta_e
326 330 328 330 333 335 342 342 343 345 345 344 343 343 343 342 340 339 342 343 341 339 339 339 335 333 335 335 334 336 338 340 339 340 341 342 342 342 342 347 350 349 349 353 353 355 354 358 354 350 349 350 351 345 347 345 345 344 342 342 340 337 338 340 341 339 334 332 334 334 335 338 338 339 340 340 339 338 340 338 338 338 338 338 338
325 326 328 330 333 334 338 341 342 341 342 343 342 343 342 342 339 340 342 344 344 344 340 337 338 337 334 333 335 335 336 337 338 339 339 340 342 341 343 347 347 347 348 350 357 353 354 353 355 352 352 351 349 347 346 343 345 344 343 340 342 338 336 340 342 337 332 328 326 327 329 331 335 336 338 339 338 337 337 338 338 338 338 338 339
324 326 327 329 329 333 337 340 341 342 342 342 343 342 341 339 339 338 337 338 339 339 338 335 336 338 336 335 337 337 339 341 340 340 340 338 339 343 344 344 343 343 347 349 353 353 351 351 351 349 347 347 345 344 345 344 344 343 342 340 338 340 337 341 341 340 331 332 330 327 323 323 329 334 338 338 339 338 338 337 338 338 338 339 339
323 325 328 331 331 330 335 339 340 341 340 341 342 341 341 339 337 337 337 339 336 336 337 338 337 338 339 339 339 340 337 337 338 340 338 337 338 341 346 343 344 340 342 341 349 352 353 349 348 349 349 347 347 344 343 342 344 346 343 342 341 335 334 336 342 340 336 331 324 324 324 323 319 326 327 334 338 337 338 338 339 338 339 339 340
322 325 327 329 327 331 336 338 341 340 339 340 341 341 341 338 337 338 338 336 335 336 338 337 337 337 337 337 338 338 338 337 335 335 335 337 336 337 340 344 343 343 345 345 345 349 347 348 348 348 347 347 345 342 340 340 340 340 342 342 340 337 333 335 337 340 338 339 332 325 322 320 319 323 327 326 334 335 336 337 338 338 338 338 339
323 324 325 328 329 333 336 338 339 339 339 341 342 342 341 339 338 338 336 336 334 337 340 340 339 338 336 334 333 334 332 332 332 334 335 338 337 338 339 341 344 344 346 347 346 345 347 346 346 343 344 345 345 343 342 341 341 340 340 339 339 338 336 333 333 338 339 338 338 334 330 323 323 326 325 319 329 330 332 336 336 337 338 336 337
324 325 327 329 332 333 335 337 338 338 340 342 341 341 340 340 339 337 335 335 337 338 339 339 337 338 338 337 337 335 335 336 337 337 338 338 339 339 340 342 341 347 346 347 346 341 342 343 343 342 340 342 345 342 341 341 339 339 339 337 338 338 337 332 332 332 335 336 338 338 337 336 334 328 323 325 320 326 330 331 334 338 337 336 336
326 325 326 330 332 333 334 337 337 338 340 341 341 341 341 340 338 337 336 336 339 340 339 338 336 337 337 337 337 338 336 334 336 337 339 338 340 336 339 338 340 342 341 339 339 338 338 339 338 339 339 336 336 337 338 339 338 339 340 341 341 340 337 334 332 333 330 330 335 334 333 334 334 332 331 327 323 320 323 329 332 333 335 336 336
328 326 326 331 332 334 335 337 338 340 340 339 340 339 340 339 337 337 336 337 338 338 337 337 338 338 339 337 336 337 337 336 336 332 333 339 335 337 337 337 340 340 339 338 337 335 335 335 336 336 335 336 333 332 334 335 337 337 337 337 337 337 337 336 334 332 331 329 329 330 331 330 330 331 331 332 324 321 321 323 324 329 331 332 336
331 330 331 333 334 335 337 338 339 339 339 341 340 339 338 337 337 337 337 337 336 336 337 337 337 335 336 335 335 336 337 336 336 336 336 339 337 339 340 338 337 336 337 335 334 331 332 334 333 333 334 333 336 333 334 335 335 335 336 335 335 335 336 336 333 332 332 332 331 330 328 328 328 327 327 327 327 326 322 322 323 322 321 325 332
329 331 331 333 332 331 329 327 332 335 337 337 337 338 337 337 338 337 336 336 337 337 336 334 333 333 333 336 335 332 334 335 334 334 339 338 338 336 336 337 336 335 337 336 331 330 331 333 332 331 332 332 331 330 330 331 332 332 333 334 334 334 333 333 333 333 332 332 332 330 329 328 326 325 324 325 324 322 321 321 322 323 323 322 326
329 330 329 328 328 328 329 327 329 333 333 335 333 335 336 335 336 335 335 336 338 337 336 334 334 335 336 337 335 334 335 333 333 334 337 336 336 333 336 338 335 335 333 333 331 329 331 330 329 329 329 329 328 329 330 330 330 331 331 332 332 334 334 333 333 331 332 331 331 331 330 330 329 328 328 328 325 324 323 322 322 323 323 324 326
329 329 328 326 326 326 326 327 330 330 332 332 331 330 332 334 336 334 334 335 335 336 336 337 337 337 335 333 334 337 332 334 334 335 331 330 330 331 332 336 336 330 331 330 327 328 327 327 327 326 326 327 327 327 327 328 329 329 330 331 331 331 331 331 330 330 331 330 330 331 331 330 329 330 330 329 328 327 325 322 323 323 320 321 324
330 328 327 326 327 326 327 326 328 330 331 329 329 329 330 334 335 334 333 334 335 334 335 336 335 336 337 334 334 333 331 331 330 329 330 330 331 330 329 329 333 332 328 326 325 324 325 325 325 325 324 325 325 325 325 326 327 326 326 327 328 329 330 329 329 329 329 330 330 328 328 329 329 330 329 329 327 325 323 322 321 322 322 321 324
328 327 326 326 327 325 325 327 329 326 324 329 330 330 332 333 333 332 331 333 334 334 333 332 331 332 333 333 331 331 329 327 328 328 328 329 329 328 327 328 326 325 324 324 324 324 324 324 325 324 323 324 324 323 324 324 325 324 325 326 326 327 326 325 325 325 325 325 326 326 326 327 327 328 328 328 329 327 325 324 322 319 319 320 320
326 326 327 325 328 325 324 328 327 324 326 329 331 333 332 332 332 332 331 332 331 330 330 330 330 330 330 329 329 329 328 328 327 327 327 327 328 330 328 326 324 323 322 322 323 324 324 323 323 325 324 323 322 322 322 322 322 323 324 323 323 325 322 322 322 322 322 323 323 324 323 323 325 326 326 326 327 328 327 326 324 322 318 315 318
326 325 324 324 327 324 326 326 327 327 328 328 331 333 333 332 331 330 330 330 330 329 329 329 328 327 326 327 328 328 327 325 325 326 326 327 329 326 324 323 322 322 322 322 323 324 326 324 324 323 322 321 322 322 322 323 323 324 322 322 322 322 321 320 321 321 321 321 321 321 320 320 321 324 325 326 327 327 327 327 326 323 323 318 315
323 324 324 325 325 326 328 328 327 326 330 330 330 333 333 332 331 329 328 327 328 327 327 327 326 325 325 325 326 326 325 325 326 326 327 326 325 324 323 321 321 321 321 322 323 323 324 323 323 322 322 323 322 322 321 321 322 322 321 322 321 321 320 320 321 320 320 320 320 320 319 319 320 321 322 324 325 325 325 325 324 325 325 321 319
321 322 324 324 327 329 324 325 325 327 330 330 331 332 332 331 331 329 327 327 326 326 326 326 325 324 324 324 324 324 325 325 325 325 325 322 321 321 320 321 322 322 323 323 323 322 323 322 321 320 321 320 321 320 320 320 320 320 320 319 320 319 319 319 319 319 320 319 318 318 319 319 320 320 321 322 322 323 323 323 324 324 324 324 321
321 322 325 328 326 324 324 324 325 328 330 330 331 331 330 329 328 328 327 326 326 325 325 324 324 324 324 324 325 324 323 323 323 323 322 321 320 320 319 319 319 320 320 320 319 319 319 319 319 319 319 320 319 319 319 319 319 318 318 318 318 318 317 317 317 318 319 318 317 317 317 318 318 318 318 319 320 321 321 321 322 322 323 323 324
324 324 326 323 321 325 325 327 327 329 328 329 330 329 328 328 327 326 325 325 324 324 323 323 323 323 324 323 322 322 322 322 321 321 320 319 320 319 319 318 317 318 319 318 317 317 317 318 317 317 317 317 317 317 318 317 317 317 317 318 317 317 316 316 316 316 316 316 316 316 316 316 316 316 316 317 317 317 317 317 318 318 319 320 321
327 328 324 324 324 325 329 327 329 328 327 327 327 327 327 326 325 325 324 323 322 321 322 322 322 322 321 321 320 321 321 320 320 319 318 317 317 319 319 316 315 316 317 315 315 317 317 317 316 316 316 316 315 315 315 316 315 316 316 317 317 316 316 315 316 314 314 314 314 313 314 314 315 313 313 312 312 312 312 312 314 315 316 317 320
328 328 327 326 325 327 329 328 327 327 326 325 325 325 325 325 325 324 323 322 322 321 321 321 321 320 320 319 319 318 318 318 317 317 316 315 316 316 316 316 315 315 316 316 317 317 317 316 315 315 314 313 312 312 312 312 312 313 314 315 316 315 315 314 313 312 312 313 313 313 313 313 313 311 310 310 310 309 309 309 310 313 314 316 318
328 328 328 328 327 328 327 326 326 325 324 324 324 324 324 324 324 323 322 321 321 321 320 320 319 319 318 318 317 317 316 315 315 315 315 315 316 316 316 315 315 315 314 318 318 316 316 315 314 312 311 311 309 309 308 309 310 311 312 314 314 314 314 313 313 313 313 313 313 313 312 312 311 309 308 308 308 308 308 309 310 311 312 314 315
326 326 325 326 325 325 325 324 323 323 323 322 322 322 323 323 322 321 321 321 320 320 319 318 318 317 316 316 315 315 314 314 314 314 314 314 314 314 315 314 314 314 314 315 316 317 315 313 312 310 310 309 307 307 306 307 309 311 312 313 313 313 312 312 312 313 314 313 313 312 312 311 309 306 306 305 305 306 307 308 308 309 311 314 314
324 324 324 323 324 324 322 321 321 321 321 321 321 321 320 320 320 321 319 319 319 319 318 317 316 315 315 314 314 314 313 313 313 313 313 314 314 314 314 315 314 314 315 315 315 315 314 311 310 309 309 307 306 306 305 306 308 310 311 313 313 312 312 312 312 312 312 312 312 312 311 310 308 305 304 304 303 303 304 305 306 308 311 313 312
322 322 323 323 321 320 320 320 320 320 320 320 319 319 318 318 319 319 319 319 318 318 317 316 315 314 313 313 312 312 313 312 313 313 313 313 313 314 313 313 315 317 316 314 314 313 313 311 310 309 308 306 305 305 304 303 304 306 308 310 312 311 311 311 311 311 311 311 311 311 310 309 307 305 304 303 301 301 302 303 305 306 309 311 311
321 321 321 320 318 318 318 319 319 319 319 319 318 318 317 317 316 316 316 318 318 317 315 315 314 313 312 312 312 312 312 312 313 313 312 312 313 313 313 315 314 314 314 313 313 312 311 310 310 309 307 306 305 303 301 299 300 302 305 307 311 310 310 310 310 309 309 308 309 309 309 308 307 305 304 302 300 299 300 301 304 305 307 310 309
319 320 320 318 317 317 318 318 318 318 317 317 317 317 317 316 315 315 316 315 316 315 314 313 312 311 311 311 312 312 312 312 312 312 312 312 312 313 313 313 313 313 314 313 312 311 310 309 308 308 306 306 304 301 299 296 297 299 302 306 310 309 309 308 307 307 306 306 306 306 307 307 307 307 306 303 301 301 300 299 301 303 305 309 308
319 318 317 317 317 317 317 317 316 316 316 315 315 314 316 316 316 316 315 315 315 314 312 311 311 310 310 311 311 311 311 311 311 311 311 312 312 312 312 312 311 312 312 312 311 311 309 308 307 306 306 305 302 299 297 295 295 297 300 306 310 308 308 307 306 305 305 304 303 304 306 308 307 305 303 299 298 298 300 301 301 302 304 308 307
316 315 315 315 316 316 316 315 315 315 315 314 313 313 314 315 316 317 316 315 314 313 312 311 310 310 310 311 310 310 311 311 311 311 311 311 311 312 311 311 311 311 311 311 311 310 309 308 306 305 304 304 301 297 294 293 293 294 299 303 309 308 307 306 305 304 303 302 302 302 303 305 305 303 301 299 297 297 297 297 299 302 304 308 305
313 313 314 314 314 315 314 314 314 315 314 313 313 314 313 313 314 314 315 315 314 312 311 310 310 310 310 310 310 310 310 310 311 310 310 311 311 310 310 310 310 310 310 310 310 309 309 308 306 305 303 302 300 295 292 293 293 292 295 302 308 307 306 305 304 304 303 301 300 301 302 303 302 302 301 299 299 298 297 297 298 299 297 298 299
313 312 313 313 313 313 314 314 314 314 313 314 314 313 313 313 313 314 314 314 312 311 311 310 310 310 310 310 310 310 309 310 310 310 311 310 309 309 309 309 309 309 309 308 308 308 308 308 306 304 302 300 298 294 292 292 293 292 292 299 307 307 305 304 304 304 303 301 300 300 300 301 301 303 302 298 297 298 299 300 301 303 299 297 296
313 313 313 314 314 313 314 314 314 314 314 314 315 314 313 314 313 313 313 313 311 311 311 310 309 309 310 310 309 309 309 309 310 309 310 309 309 308 310 310 310 309 308 308 308 308 307 306 304 303 301 300 297 293 292 292 293 292 292 296 307 306 305 304 304 304 302 300 300 299 299 299 299 299 299 297 296 297 300 302 303 303 304 304 301
312 313 314 314 313 313 312 312 313 314 314 314 315 313 313 312 312 311 311 311 311 310 310 310 309 309 310 309 309 309 309 309 309 309 309 308 309 310 309 309 309 308 308 307 307 306 306 304 303 302 301 300 298 292 292 292 292 292 292 298 307 307 305 304 304 304 302 301 300 300 299 299 299 298 299 296 295 295 299 301 301 301 302 303 303
313 313 313 312 312 312 312 313 313 313 313 313 311 311 311 311 312 311 311 311 310 310 309 309 309 309 309 309 309 308 308 308 308 308 307 307 308 308 307 307 307 307 307 307 306 306 305 304 303 301 300 299 298 292 291 292 292 292 294 307 306 306 304 303 303 303 301 300 299 299 298 298 298 298 297 292 293 295 299 299 300 300 301 301 302
314 314 313 314 314 314 314 313 313 312 311 310 311 311 310 310 310 310 310 310 309 308 308 309 309 309 309 309 309 308 308 307 307 307 306 307 307 306 306 307 306 306 305 305 304 304 304 303 302 301 299 298 298 294 291 292 292 292 297 306 305 303 304 303 302 302 301 300 300 299 298 298 297 297 295 291 291 294 299 299 299 298 299 300 300
314 314 314 314 314 314 313 312 312 311 311 311 311 311 310 309 309 309 309 308 308 308 308 309 308 309 309 309 308 308 307 307 307 306 307 307 307 307 307 308 305 304 303 302 302 302 303 303 302 301 300 297 297 296 292 292 292 292 296 305 304 303 302 301 302 302 302 302 301 303 303 297 296 296 292 291 291 294 297 299 298 297 297 297 299
314 313 312 313 313 312 312 312 311 310 311 312 311 311 309 308 308 308 308 307 307 307 308 308 308 308 308 308 308 308 307 307 306 306 307 306 306 306 307 308 307 305 304 303 302 300 301 301 301 301 303 300 297 297 293 292 292 292 296 302 302 301 300 300 300 299 300 300 300 301 301 297 296 294 291 291 291 293 295 298 298 298 297 297 298
313 314 314 313 313 313 311 311 310 310 312 311 311 310 309 308 308 308 307 306 307 307 308 308 308 308 308 308 308 308 307 307 306 306 307 306 307 307 307 306 306 305 304 304 303 302 301 300 300 300 301 300 299 298 295 292 293 293 293 300 301 298 297 299 298 298 297 298 298 298 298 294 292 292 291 291 291 291 294 298 299 297 297 297 300
313 313 310 313 313 312 311 311 311 311 311 311 310 309 308 308 308 307 306 306 307 307 307 307 307 307 307 306 307 307 306 306 306 306 307 307 307 307 306 305 305 305 305 305 305 304 303 302 301 300 300 300 301 299 297 291 293 293 293 295 298 298 296 299 297 296 296 296 296 297 298 296 293 292 291 291 291 292 293 300 299 296 297 296 297
313 311 312 313 312 312 311 311 311 311 311 311 311 308 305 306 305 304 304 305 305 305 305 305 305 304 305 305 306 306 306 307 307 306 305 305 306 307 307 306 306 306 306 305 305 304 303 303 302 301 300 300 302 301 299 294 292 293 292 293 296 297 295 299 297 296 296 297 296 297 297 296 292 291 291 291 291 292 293 297 293 291 290 291 300
311 312 312 312 311 310 310 310 311 311 308 308 307 305 305 305 304 304 305 305 305 305 304 304 304 304 304 305 305 306 307 307 307 307 306 305 306 306 306 307 306 305 305 304 304 303 302 302 302 302 301 301 302 301 296 299 293 292 292 293 291 294 292 300 298 297 298 297 298 298 298 296 292 291 291 291 291 292 295 294 292 292 291 294 297
312 312 311 311 310 310 310 310 310 310 309 309 306 304 304 304 303 305 305 305 305 305 304 304 304 304 305 305 305 306 307 307 306 306 305 305 305 305 305 305 305 304 304 303 303 303 302 301 300 300 300 302 303 302 296 296 297 292 292 291 292 292 291 294 297 300 299 299 298 298 296 291 291 291 292 292 293 293 293 291 292 293 294 295 298
311 311 311 311 310 309 309 309 309 309 307 306 305 304 303 302 304 305 305 305 305 305 305 304 304 305 305 305 305 306 306 306 307 307 305 305 306 307 305 306 306 305 304 302 302 302 301 299 298 298 298 298 299 299 299 296 293 293 291 291 290 291 291 291 297 300 299 298 294 292 291 290 292 293 293 294 295 295 292 292 292 293 298 298 297
311 310 310 310 310 309 308 307 306 306 306 306 305 304 303 303 305 306 306 306 305 305 304 304 304 304 304 304 304 304 304 305 306 305 306 306 305 304 303 304 305 305 305 303 301 300 299 299 298 297 296 296 297 296 296 296 296 296 295 293 293 293 295 294 296 298 293 293 294 293 292 293 295 295 297 297 296 296 293 294 294 296 297 297 296
310 309 308 309 308 307 306 305 305 306 305 305 305 305 305 306 306 306 306 305 305 305 304 304 304 303 304 304 304 303 303 304 305 304 305 305 304 303 301 300 301 304 303 303 303 301 299 298 298 297 296 295 294 294 294 295 295 295 295 296 297 297 296 295 297 297 295 296 296 297 296 293 294 294 294 294 294 295 296 297 296 296 296 296 296
311 310 310 309 308 307 305 304 304 305 305 305 305 305 305 306 306 306 306 305 305 304 304 303 303 303 303 303 302 296 299 299 298 298 299 302 301 299 297 296 297 296 300 300 298 298 298 298 299 297 296 295 293 293 293 292 293 293 293 294 295 296 296 296 295 295 293 295 298 296 297 299 298 297 297 297 296 296 295 294 295 295 295 295 296
309 309 309 308 308 307 306 304 303 304 305 305 304 305 305 306 306 306 306 305 304 302 303 303 302 302 302 301 302 302 300 299 297 296 294 294 297 298 296 294 293 293 295 299 299 298 297 297 295 295 296 294 293 292 292 290 291 289 288 292 293 293 293 293 294 290 292 295 298 298 298 296 296 293 294 295 295 295 294 295 296 295 295 295 295
310 310 309 309 309 307 304 303 303 304 304 303 304 304 305 305 305 305 305 304 303 303 302 302 301 301 301 302 302 301 300 298 296 294 293 293 288 289 293 294 293 290 289 290 291 294 296 297 293 294 295 293 292 294 289 288 289 289 289 289 289 289 289 290 290 289 292 294 297 294 294 292 294 293 292 291 292 293 293 292 293 292 293 294 293
309 308 306 306 305 304 304 303 303 303 303 303 303 304 304 305 305 305 304 303 303 302 301 301 301 301 300 301 301 300 300 298 295 294 293 292 292 292 288 288 289 289 289 289 289 289 289 289 296 294 292 289 290 288 288 289 288 289 289 289 289 289 289 289 289 289 290 290 290 289 291 292 292 294 291 293 290 291 290 289 291 292 293 291 291
Wind_Speed
4 4 4 10 8 4 4 5 6 7 8 9 9 9 10 10 10 10 8 7 7 7 7 5 7 6 3 2 3 5 3 1 1 1 4 5 5 3 2 3 4 2 2 1 2 1 0 1 1 0 0 0 0 1 1 1 1 1 1 1 2 3 2 2 2 2 3 5 5 5 5 6 8 8 7 5 4 3 4 4 4 4 3 3 6
4 5 6 3 4 7 6 6 7 10 9 8 9 9 9 12 10 10 7 4 5 3 7 6 4 4 5 5 4 5 2 3 2 1 3 2 4 6 3 2 3 3 3 3 1 1 1 0 0 1 0 0 1 1 2 1 2 2 1 2 1 2 2 1 2 2 2 3 6 6 6 7 7 7 7 4 4 5 4 4 4 4 3 3 2
9 7 4 8 6 9 6 2 5 7 8 9 10 9 9 9 10 10 8 9 5 7 8 7 6 6 6 4 5 4 4 2 3 2 2 1 6 6 4 4 3 5 4 2 0 0 1 0 1 2 3 3 3 3 2 2 2 2 2 2 3 2 3 2 1 1 2 3 5 6 4 6 4 2 1 2 3 4 4 4 4 3 3 3 4
9 9 10 10 9 8 9 6 5 5 7 8 10 10 8 9 11 11 10 7 8 7 8 7 7 6 6 5 5 3 3 1 2 4 2 3 4 8 6 6 2 3 7 4 3 1 1 3 2 2 2 2 2 2 2 2 1 0 1 3 2 4 2 3 2 1 2 2 4 3 7 5 6 1 4 2 5 6 5 6 4 4 4 4 4
12 11 10 12 12 13 10 8 7 5 5 8 9 9 7 11 10 7 8 9 7 9 9 9 8 7 6 6 6 5 4 3 2 2 2 1 4 9 8 4 7 6 7 4 1 2 4 2 3 2 2 2 3 4 4 4 4 3 3 2 2 2 4 3 3 3 3 0 2 2 3 2 2 5 8 8 2 1 4 6 5 4 4 4 4
16 16 14 13 14 10 10 9 9 8 7 7 8 9 10 10 10 9 9 8 8 9 9 8 7 8 8 7 6 4 3 2 2 4 2 0 2 4 9 7 8 4 5 4 4 3 2 2 3 3 3 3 2 2 2 3 3 3 2 3 3 3 3 4 3 3 3 3 3 6 3 4 6 5 5 5 5 5 6 2 4 5 6 6 5
12 9 9 12 13 12 10 10 10 10 9 8 8 9 12 9 9 10 8 8 7 7 7 5 5 4 5 6 6 5 5 3 3 1 1 1 2 2 3 5 6 2 2 1 2 5 4 4 3 4 4 3 1 2 2 2 2 3 4 4 4 4 3 3 4 5 5 3 3 2 3 4 5 3 4 5 9 5 2 4 4 4 6 5 5
10 9 9 12 13 14 14 11 10 10 11 11 9 9 10 9 10 10 8 8 8 7 7 6 6 5 5 6 5 5 5 5 5 3 4 2 1 2 1 5 6 3 5 6 7 5 5 5 5 4 4 5 5 3 3 3 5 4 3 3 2 2 3 4 4 4 5 5 4 5 4 4 4 5 5 4 5 7 11 4 3 6 4 4 6
12 10 11 12 14 13 12 11 11 11 11 11 10 10 11 11 11 10 11 10 8 8 7 7 5 5 4 6 6 4 5 5 6 5 3 5 3 2 6 7 4 6 6 6 6 7 6 6 5 5 5 4 6 5 5 5 3 3 4 4 4 4 3 3 3 4 4 5 6 5 5 5 5 5 5 4 3 5 8 7 8 4 4 6 5
12 13 13 12 11 10 9 12 10 11 10 11 11 11 11 10 11 12 12 8 9 9 7 7 5 3 3 5 6 6 5 5 3 4 5 6 6 5 2 4 4 5 5 6 5 7 7 5 5 6 5 5 4 4 6 7 7 6 6 5 5 4 3 3 4 4 4 5 4 6 6 6 5 4 3 5 4 4 7 9 7 8 8 5 4
13 12 8 6 7 7 10 8 5 6 8 9 10 11 11 10 11 12 11 10 10 9 8 7 5 3 2 3 5 6 6 4 3 2 2 3 2 3 4 3 3 4 3 4 5 6 5 5 5 5 5 6 7 7 6 6 6 6 6 6 5 6 5 5 5 4 5 5 4 5 6 6 6 6 6 5 5 6 7 8 8 7 8 9 6
12 11 9 9 7 7 9 11 7 6 7 9 8 9 11 10 11 12 11 10 9 9 8 7 6 4 3 3 5 5 5 5 3 1 0 2 3 5 2 2 3 3 4 4 5 4 4 6 6 6 6 6 6 5 5 5 4 4 5 5 5 5 4 4 4 4 5 5 5 5 6 6 6 6 6 6 6 6 7 9 9 8 8 7 7
13 10 8 7 7 8 10 11 9 9 7 7 7 5 4 10 12 14 13 11 10 9 8 8 6 6 6 6 6 5 7 4 2 4 7 5 5 4 3 1 2 4 3 4 5 6 5 6 6 5 6 6 6 7 7 8 7 7 7 5 5 5 5 5 5 6 6 6 6 6 6 7 7 6 6 7 6 6 7 9 8 7 8 8 7
11 9 8 7 8 8 8 9 8 8 10 11 10 13 9 10 12 14 13 11 9 9 7 7 7 6 6 6 6 7 8 8 8 7 6 5 4 5 5 4 2 2 5 6 6 6 5 5 5 5 5 6 6 6 5 5 5 6 6 7 8 7 7 8 7 8 7 6 6 7 7 7 8 7 7 7 7 7 7 8 9 8 8 9 7
10 10 9 8 6 8 7 7 7 6 9 12 12 13 12 13 14 14 14 11 10 9 9 9 7 8 7 7 8 7 8 8 7 6 6 7 6 5 5 6 6 6 6 5 7 5 5 3 3 4 4 4 4 4 5 4 5 5 5 6 7 6 8 9 8 9 9 10 10 8 8 7 6 7 7 8 8 7 8 8 8 11 10 8 8
12 10 10 8 8 8 7 5 9 8 9 11 11 8 10 11 14 14 15 14 12 11 9 8 8 7 8 9 9 8 7 7 6 6 6 6 5 3 3 5 6 7 6 6 5 2 1 2 3 1 2 3 4 5 5 4 5 5 4 5 5 6 8 9 8 8 8 9 8 9 9 9 8 7 7 7 8 7 7 8 9 9 10 11 8
12 11 10 13 12 13 12 10 10 11 9 11 11 9 12 13 13 14 14 13 12 11 10 9 8 8 9 9 9 9 9 8 7 7 6 4 2 4 4 6 6 5 4 2 1 1 1 2 2 3 4 5 3 3 3 3 3 2 3 4 5 6 6 7 7 7 8 8 8 9 8 8 9 10 9 7 7 7 7 6 6 7 8 9 8
13 13 13 13 12 12 12 8 10 9 10 12 13 8 10 12 13 13 12 14 12 12 11 9 9 10 9 9 9 9 8 7 5 4 4 4 4 4 4 4 3 1 2 2 1 2 2 2 2 3 3 2 2 3 5 5 4 4 5 4 6 6 5 4 5 6 7 7 7 7 7 7 8 9 9 10 8 8 9 9 9 8 6 7 8
11 11 10 10 11 8 12 9 8 8 10 12 11 11 11 12 12 11 11 12 13 11 10 9 9 8 8 8 8 7 7 5 4 4 4 5 5 4 3 3 2 2 1 1 2 1 2 2 3 4 3 4 4 5 5 4 4 5 6 5 6 6 6 6 6 6 5 6 8 9 9 8 8 9 10 10 10 9 9 9 9 9 9 9 9
9 9 9 7 8 6 12 14 14 12 12 10 12 12 14 12 12 12 11 10 11 12 10 10 9 8 8 8 7 7 7 6 5 5 5 5 5 5 5 3 3 2 3 2 2 4 3 3 3 2 3 3 3 4 4 4 5 5 6 5 6 7 7 7 7 7 6 7 7 8 8 8 9 9 9 10 10 9 9 9 10 10 9 9 9
10 11 9 11 10 7 11 12 11 10 11 9 12 13 13 11 12 12 13 11 11 10 10 9 8 7 7 8 8 7 7 7 7 6 5 4 4 4 4 5 3 3 3 3 4 4 4 3 4 4 5 5 5 6 6 5 5 6 5 6 7 7 8 6 6 7 9 9 9 10 10 11 11 11 9 10 10 11 11 10 10 10 9 9 9
13 12 11 11 11 8 12 12 14 14 12 11 11 13 13 11 11 12 11 12 11 11 10 10 8 8 8 9 9 7 7 7 7 6 5 5 4 3 5 6 5 4 4 5 4 2 3 4 4 5 6 7 9 9 8 7 7 7 6 5 5 7 7 7 7 8 9 8 9 9 10 10 10 11 11 11 11 11 11 11 11 10 10 10 9
15 14 14 12 13 12 14 14 17 15 13 13 11 11 11 11 11 10 11 11 11 11 10 9 9 9 10 9 9 8 8 8 7 5 5 5 4 5 5 4 5 4 3 3 2 2 3 4 5 7 9 9 9 9 8 8 8 8 7 6 6 7 8 8 8 8 8 6 6 6 8 9 7 9 10 9 10 10 10 11 11 10 11 10 10
14 12 13 13 13 14 14 14 12 12 13 12 11 11 11 10 10 10 11 11 11 10 9 9 9 10 10 10 9 9 9 7 7 5 5 5 5 4 4 5 5 4 5 1 2 4 3 6 9 9 9 9 10 9 9 8 8 8 8 8 8 9 8 8 7 7 6 6 7 7 8 8 8 9 10 10 10 11 10 10 11 10 10 11 10
15 14 14 13 14 14 13 12 13 12 12 11 12 11 10 9 9 10 11 10 9 9 10 11 10 11 10 10 10 9 8 8 7 6 6 6 5 5 4 6 4 4 4 3 2 3 7 9 8 9 9 9 10 9 9 9 8 7 8 7 8 7 7 7 7 7 9 8 8 7 7 7 9 11 10 11 11 13 12 11 11 10 10 8 8
13 15 16 16 14 12 12 13 12 11 12 12 11 10 10 9 8 9 10 10 9 8 10 11 10 11 11 11 10 9 10 10 8 6 7 7 6 5 4 4 5 5 3 4 5 6 8 9 9 9 9 10 10 10 10 9 9 7 7 6 6 5 6 6 7 7 9 8 8 7 7 8 10 10 10 10 12 13 11 11 11 11 10 9 9
16 16 14 12 12 14 14 14 13 13 12 12 13 14 11 10 10 9 8 9 9 8 10 10 10 10 11 11 10 9 8 8 7 7 7 7 6 4 6 5 2 2 3 5 7 9 8 8 9 9 10 9 9 9 9 8 9 9 8 7 5 6 7 7 8 9 9 8 8 7 8 9 10 10 10 11 12 12 10 11 10 11 11 10 9
12 13 14 13 15 13 14 14 14 14 13 13 13 14 12 11 10 9 8 6 6 8 9 10 10 10 11 10 9 9 8 7 7 7 8 7 6 5 4 2 4 4 6 8 8 9 8 8 8 8 9 8 8 8 9 8 7 7 7 7 6 7 8 8 9 10 11 12 12 12 10 11 10 11 11 11 12 12 11 10 9 9 11 9 8
15 14 12 15 15 14 14 13 12 13 14 14 13 13 11 10 10 9 8 9 9 9 10 11 11 11 11 10 8 8 8 8 8 8 7 7 6 5 5 6 5 6 5 7 9 9 9 9 9 9 8 7 7 7 6 7 7 8 7 7 6 9 8 9 9 9 10 11 12 11 11 12 13 15 14 13 14 12 9 10 11 10 9 7 7
13 14 15 15 15 15 14 13 13 15 15 14 13 11 10 11 11 10 10 9 8 9 10 11 11 11 11 11 11 8 9 8 8 8 7 7 6 6 6 7 7 7 6 7 8 8 8 9 9 8 7 6 7 6 10 12 7 5 6 6 5 7 8 9 9 9 10 11 11 10 9 16 14 16 16 17 18 19 17 10 10 8 7 6 6
14 14 14 12 14 16 16 15 14 15 15 14 12 12 11 10 9 9 10 9 10 9 9 10 11 11 12 11 10 10 9 9 8 7 7 7 8 6 7 7 7 7 7 7 6 7 7 8 9 8 7 6 6 7 14 14 14 12 7 6 5 8 9 8 9 9 9 10 10 10 9 12 14 14 14 17 18 18 18 18 19 17 5 4 5
14 13 13 13 13 15 18 16 16 15 14 14 13 12 12 10 10 9 9 10 10 9 10 10 10 11 11 11 10 10 9 9 8 9 8 7 7 8 8 8 7 7 6 6 5 6 7 7 6 7 7 7 6 11 14 15 14 15 10 5 6 7 7 7 7 8 8 8 10 10 9 9 10 13 13 14 16 18 18 19 17 13 3 3 1
15 15 15 15 14 14 14 15 15 14 13 14 13 13 11 12 11 9 7 10 11 10 10 10 10 10 11 9 10 9 9 9 9 8 7 7 7 8 8 7 7 6 6 6 6 6 6 6 7 8 8 8 7 12 14 14 15 14 14 8 6 5 7 7 6 7 8 8 8 9 8 8 9 17 14 13 14 13 16 16 14 16 4 4 6
14 15 16 15 14 13 12 12 12 12 12 12 10 10 11 11 11 9 6 5 11 10 9 10 10 10 10 9 9 9 10 10 9 8 8 7 7 7 6 5 6 6 6 6 5 5 6 8 8 7 7 8 7 12 13 15 14 15 13 8 5 5 5 5 5 5 7 7 8 8 8 8 9 11 12 13 13 14 11 11 12 11 11 13 7
16 15 14 13 14 15 14 13 11 10 9 10 8 8 10 12 11 11 10 10 9 9 10 9 9 9 9 8 9 9 9 9 8 7 7 7 6 5 6 4 5 5 5 5 5 6 7 7 7 7 6 7 6 14 14 15 16 16 15 6 5 3 4 4 3 5 6 6 7 7 7 7 8 10 12 14 12 10 9 10 10 11 11 10 10
15 17 16 17 16 15 15 13 12 12 10 10 11 10 10 11 11 11 9 9 9 8 10 9 9 8 8 8 9 9 8 8 8 7 7 7 6 5 7 7 7 6 6 6 7 7 7 6 7 7 7 8 9 16 15 17 17 17 14 3 4 3 3 4 3 6 6 4 5 6 6 7 8 9 14 19 15 11 9 11 10 10 10 9 8
15 16 17 16 15 15 14 13 12 12 12 9 9 10 10 10 10 11 11 9 8 8 8 8 11 8 9 9 9 9 8 8 7 8 8 7 6 8 7 6 6 6 6 6 6 6 6 6 7 7 7 8 9 14 16 16 17 18 12 2 3 4 3 4 4 4 6 3 5 7 7 7 9 10 14 17 17 15 10 11 10 11 10 10 10
16 16 16 16 16 16 15 14 15 13 11 10 8 9 10 10 9 10 11 11 9 8 7 8 9 8 8 8 9 9 9 8 8 7 7 7 7 5 5 5 7 7 7 6 6 6 6 6 6 6 7 8 8 12 15 16 18 19 15 5 4 4 5 5 4 4 3 3 4 9 10 8 10 11 15 16 15 11 9 9 9 9 10 11 11
16 19 19 17 16 17 16 16 16 15 13 11 10 10 10 9 9 9 10 9 8 8 8 9 9 9 8 8 8 8 8 8 8 6 6 7 6 5 5 5 5 6 6 6 6 6 5 5 5 5 8 8 7 9 13 14 16 17 14 6 8 7 6 5 5 5 5 5 4 5 11 11 12 14 18 17 16 9 7 7 8 7 8 9 9
17 16 18 18 17 16 16 16 16 15 15 14 13 11 10 10 9 8 9 8 7 7 9 9 8 8 8 7 6 7 7 8 8 7 7 6 5 4 4 5 5 5 5 5 5 6 6 5 5 5 5 5 5 5 8 12 13 14 15 9 6 7 7 5 6 6 6 5 5 5 8 13 16 16 16 18 17 14 7 5 4 6 7 7 6
17 16 15 15 15 16 16 16 14 14 14 14 13 12 10 10 11 10 9 7 8 9 9 9 8 8 9 8 7 7 7 7 7 6 5 4 5 5 5 6 6 5 4 4 5 4 5 6 5 5 4 4 3 4 5 9 10 12 13 10 6 7 7 6 5 5 6 5 5 6 6 12 16 16 15 16 16 17 13 5 6 5 4 8 8
15 16 16 15 15 15 16 15 13 14 10 8 12 13 13 12 12 11 10 9 10 10 10 9 9 9 9 8 8 8 8 6 6 5 5 5 4 5 4 5 4 3 3 3 3 3 5 5 6 5 5 4 3 5 3 4 7 8 9 11 7 6 8 6 5 4 4 4 4 5 5 11 16 16 16 13 13 15 18 9 9 9 11 11 6
17 17 16 15 15 16 15 13 13 13 13 12 13 15 13 11 12 11 10 10 10 10 11 11 10 10 9 9 8 7 6 5 5 5 5 6 5 5 5 4 4 3 4 3 3 3 3 4 4 5 6 5 3 2 4 3 2 5 7 7 8 6 11 6 6 4 4 5 4 5 6 14 16 16 15 14 10 12 12 12 18 15 9 11 9
19 18 17 17 17 15 14 14 12 11 11 13 13 13 13 13 14 11 10 10 11 11 11 11 9 10 10 9 9 7 7 6 6 6 6 6 6 6 6 6 6 5 4 4 3 4 3 4 4 4 4 3 3 3 2 2 1 4 6 8 8 9 9 6 6 4 5 7 7 7 9 14 15 14 14 12 11 10 10 13 14 19 14 10 8
16 17 17 17 18 17 16 15 13 13 12 12 12 14 15 15 13 12 12 12 11 11 10 10 10 10 9 9 8 7 7 6 5 4 4 4 4 3 3 3 3 3 3 3 4 4 4 5 4 5 4 4 4 5 5 8 10 7 7 7 9 9 11 10 5 3 6 8 12 14 14 12 12 15 15 10 9 10 15 16 13 14 12 7 9
15 14 15 17 16 17 16 16 15 14 13 11 12 13 14 14 13 12 12 12 12 11 10 10 11 9 9 11 10 9 8 7 6 5 4 3 3 3 3 3 3 2 2 4 3 3 4 4 5 4 4 4 5 5 5 6 8 11 10 9 10 13 14 12 7 6 13 15 17 14 10 9 10 12 8 6 7 8 11 15 13 12 8 7 8
18 17 15 15 16 16 16 16 15 13 13 13 14 12 13 12 12 12 12 13 11 11 10 9 9 10 9 9 8 7 7 6 5 4 4 3 5 7 8 8 6 3 3 3 2 3 4 4 4 4 4 5 5 5 5 5 7 7 7 7 7 7 10 10 8 8 11 9 13 10 6 8 8 14 12 9 10 10 7 8 8 7 7 8 7
14 16 17 16 16 17 17 16 13 13 12 13 13 13 14 13 13 13 12 11 11 10 10 11 10 9 8 9 8 7 8 8 9 9 7 5 7 7 7 6 5 5 5 4 5 5 6 5 3 4 4 4 4 4 5 5 5 5 5 6 6 5 6 6 7 8 10 10 8 6 6 5 5 7 6 5 5 6 7 6 7 7 8 7 9
15 14 16 14 14 16 16 16 13 13 13 12 13 13 14 14 13 13 12 12 10 10 10 11 9 8 8 8 7 8 9 8 9 9 8 7 5 5 7 6 6 4 4 6 6 5 5 5 5 5 4 4 4 4 3 1 3 2 2 4 6 6 6 6 7 9 9 9 5 5 4 6 4 6 6 6 6 6 6 7 7 7 8 8 6
15 13 14 15 14 18 17 15 13 13 13 13 13 13 13 13 13 13 12 11 10 10 10 9 9 8 8 7 7 8 9 8 7 8 9 8 13 13 8 6 4 7 12 13 10 5 3 4 6 5 4 4 3 2 2 5 7 9 9 7 7 9 9 9 10 15 8 5 3 6 4 5 5 4 6 6 5 6 6 6 6 7 7 8 8
15 15 14 13 14 16 15 15 13 12 13 13 13 13 13 13 13 13 13 12 11 9 8 8 8 7 7 7 7 8 8 8 8 8 7 8 6 7 11 11 9 7 8 9 9 10 13 10 6 4 4 7 8 3 4 6 8 9 9 10 11 12 13 14 9 8 7 5 4 4 5 3 6 4 5 7 4 6 6 5 6 6 6 6 7
Wind_Direction
148 228 289 302 313 290 167 166 160 144 152 147 141 138 136 131 139 135 128 135 156 160 165 149 120 134 118 92 69 81 47 318 300 353 31 327 316 270 301 332 302 306 295 213 254 202 221 285 114 276 230 257 86 278 282 296 305 324 289 233 273 293 282 275 276 290 303 293 269 268 273 244 239 236 234 233 230 239 239 239 248 239 247 246 160
183 168 168 51 329 242 237 165 158 155 153 149 144 139 142 133 137 124 101 139 171 130 106 90 86 108 122 162 116 118 146 157 155 206 102 288 289 292 307 259 280 279 261 249 189 105 250 349 81 269 105 254 290 305 301 304 302 287 293 303 258 280 283 286 313 1 289 309 327 320 297 274 249 225 221 225 231 237 234 232 228 236 240 257 212
172 181 178 140 174 265 244 188 172 160 151 149 144 141 142 140 119 110 173 176 111 80 87 100 118 133 140 135 118 126 199 169 145 107 93 23 303 290 277 288 275 298 274 242 262 151 318 134 319 344 4 10 334 330 350 327 324 320 320 311 314 309 295 273 255 149 290 312 298 291 306 327 313 297 73 239 237 244 246 248 235 232 235 223 226
177 188 172 151 164 199 227 187 193 162 159 145 150 150 145 131 118 162 185 84 85 84 92 96 106 102 82 93 99 100 108 106 36 87 88 43 323 306 279 225 269 237 279 316 254 144 28 14 16 20 340 327 342 314 317 306 307 8 304 295 299 307 315 330 334 291 239 350 325 358 312 293 303 51 348 261 231 229 219 229 216 222 220 222 219
177 191 179 167 178 189 198 185 160 165 164 149 155 150 136 127 150 165 88 96 109 125 129 134 135 130 128 114 115 110 101 70 70 63 40 149 195 242 247 217 220 188 249 168 8 17 55 353 11 338 337 338 358 340 337 348 337 331 340 339 335 305 318 327 321 331 315 204 166 323 308 297 335 329 338 296 260 333 233 229 224 223 223 220 217
177 187 187 172 175 178 186 183 164 165 169 154 148 135 130 144 157 104 117 120 134 140 141 142 149 149 142 130 130 128 116 104 58 66 82 177 89 318 327 349 322 351 2 2 38 50 28 7 16 350 349 9 349 345 331 330 318 307 338 340 343 347 336 323 307 309 294 287 208 183 203 272 300 324 335 307 332 273 284 257 213 223 219 221 230
201 193 174 168 167 176 181 173 166 167 154 146 142 140 140 149 119 117 118 129 132 135 131 110 93 89 109 118 121 133 112 107 90 102 194 106 112 325 339 314 256 243 171 25 65 38 15 14 15 360 350 327 1 353 336 306 342 352 8 343 351 336 332 320 324 325 330 302 316 270 230 236 260 295 289 312 311 313 324 307 289 239 233 229 226
187 201 194 178 171 178 174 170 167 166 155 147 149 143 143 134 125 127 123 128 130 125 135 126 126 139 143 112 102 106 114 126 103 52 351 356 39 229 59 291 247 73 40 23 16 33 12 10 13 359 0 347 347 331 310 8 9 5 352 320 319 341 341 326 328 324 325 317 325 319 301 282 266 245 247 258 269 298 309 292 263 289 267 228 210
184 185 199 190 181 175 166 164 166 157 154 153 149 147 135 123 125 128 128 135 126 125 126 130 133 135 125 115 118 110 112 102 102 121 220 211 198 224 196 224 53 33 36 34 15 30 7 8 352 356 3 357 347 342 5 357 346 344 342 348 350 349 341 327 318 333 342 327 333 319 320 308 304 286 274 243 246 284 289 298 307 291 281 271 240
182 182 189 185 176 165 165 167 161 151 158 150 141 142 126 130 132 131 132 127 130 133 130 133 108 90 109 116 120 112 105 106 107 167 195 169 183 195 96 34 52 41 45 37 28 24 3 350 5 5 350 343 340 337 3 360 358 353 356 355 345 331 328 329 338 325 318 312 309 306 308 314 306 309 308 321 284 238 279 301 303 312 309 291 266
174 175 161 163 124 106 65 9 339 154 144 154 139 132 129 138 133 121 121 127 136 133 137 130 111 103 101 114 107 112 111 101 121 180 173 147 170 94 69 59 63 67 38 56 54 20 0 337 10 358 1 2 9 9 5 354 354 352 349 343 338 335 339 334 324 313 300 301 309 314 311 312 313 308 310 305 307 307 305 297 304 303 302 306 296
172 152 138 148 148 117 119 144 210 174 162 143 145 132 137 135 127 122 124 130 125 125 135 133 127 141 114 122 125 119 115 120 136 153 170 67 79 81 67 39 69 79 41 46 42 25 351 10 12 5 358 3 4 348 355 353 347 342 330 333 323 319 324 327 327 324 325 326 320 319 316 314 307 302 303 299 299 300 302 298 300 305 295 286 300
171 155 150 153 151 155 147 156 172 177 168 129 115 96 100 133 134 126 126 127 123 125 126 121 125 131 123 106 87 83 101 106 42 80 51 54 33 46 20 14 98 72 79 51 41 21 17 14 5 359 6 359 2 2 2 353 359 346 332 326 336 344 344 340 336 333 337 329 326 322 316 313 308 314 315 311 303 298 296 296 291 298 296 304 307
151 153 144 160 159 151 146 149 162 186 149 156 157 142 161 147 128 124 124 125 119 119 121 119 113 121 123 105 90 78 72 63 59 52 57 53 45 34 6 359 21 71 61 53 42 24 15 14 6 5 13 2 2 3 356 350 359 353 344 351 349 347 350 355 347 344 339 338 341 334 328 322 315 315 312 308 307 309 304 302 307 302 303 301 302
141 138 142 158 145 149 145 170 177 155 164 156 154 150 144 136 127 127 127 125 121 113 104 97 89 81 82 84 77 74 76 70 57 49 43 35 30 41 359 14 16 42 53 41 41 26 12 2 360 27 14 5 9 359 358 347 3 357 350 351 354 347 0 358 353 351 346 348 342 331 321 312 313 321 322 317 318 310 307 308 307 307 306 302 301
126 131 140 149 143 153 156 210 162 177 152 130 134 133 129 127 128 128 126 122 112 106 102 97 89 79 72 75 75 73 72 70 66 61 53 40 9 24 49 35 25 32 43 33 19 37 330 346 24 23 17 38 19 13 7 0 11 352 356 359 346 11 2 360 353 345 344 340 335 342 338 331 329 320 315 315 315 320 318 318 316 310 307 305 309
132 148 151 170 169 173 156 188 160 149 139 139 140 134 130 126 128 130 124 118 114 109 106 101 96 89 79 71 73 73 72 71 69 66 57 48 11 61 60 47 34 26 41 73 316 301 15 20 23 3 30 37 19 26 355 359 358 339 8 351 12 18 7 359 346 345 345 344 345 346 338 332 326 327 322 317 316 315 312 306 304 302 303 302 304
152 157 167 174 170 169 146 143 139 131 141 141 139 124 119 120 125 120 120 118 114 108 104 103 104 98 91 83 81 83 84 92 108 135 146 149 105 53 64 71 72 64 64 33 3 28 15 42 360 41 45 40 7 30 15 12 353 8 14 8 26 13 357 346 356 354 346 341 336 335 336 328 325 323 325 319 324 336 334 331 325 316 308 298 292
155 170 167 172 168 130 100 113 110 155 136 136 136 129 122 122 120 118 115 115 114 112 112 109 102 101 102 102 103 111 116 124 130 109 87 88 80 76 74 99 101 75 59 42 44 38 31 48 27 27 30 20 29 37 27 3 360 13 16 18 13 3 356 355 9 356 343 346 348 345 342 334 336 336 336 345 345 339 339 336 327 323 327 322 311
159 154 158 145 72 120 149 143 151 156 141 140 140 132 128 123 120 116 116 113 112 111 110 105 105 112 123 133 137 131 126 122 110 104 114 120 123 126 123 81 66 71 51 57 34 41 25 36 44 34 38 35 35 43 30 18 23 24 16 9 11 6 2 360 357 348 352 350 349 342 343 343 348 344 340 339 336 337 337 335 335 334 332 330 328
155 146 151 121 145 175 155 146 151 145 128 159 138 133 126 124 121 119 114 110 104 104 106 105 110 109 106 96 89 88 89 97 95 88 88 75 62 75 82 86 70 44 67 57 44 36 36 31 39 35 34 32 32 34 34 20 26 20 21 21 12 3 5 5 354 358 360 354 351 349 352 358 354 348 345 341 344 344 343 339 335 332 326 329 333
154 148 145 150 141 189 149 150 146 139 143 137 129 128 129 126 122 118 120 118 115 111 118 120 113 112 104 85 82 82 76 77 87 96 98 93 88 84 82 86 80 57 49 52 58 37 36 55 45 39 40 40 32 30 23 14 20 19 22 24 5 3 8 8 11 9 6 2 356 356 0 0 2 354 351 349 346 345 344 334 332 331 325 325 330
155 150 151 146 153 168 145 138 136 135 128 125 127 126 124 123 124 126 124 122 124 125 119 112 112 112 102 96 97 91 86 83 80 79 93 102 89 81 91 117 116 111 85 68 79 83 60 43 59 48 42 40 35 29 26 18 18 15 14 14 11 10 8 13 16 13 6 352 349 357 10 7 359 352 352 346 346 345 341 337 332 331 327 322 323
145 139 137 134 135 138 132 130 125 123 124 126 124 118 123 131 129 129 123 124 123 121 119 116 111 108 107 112 109 105 104 98 99 99 101 97 96 107 98 72 75 73 78 64 39 57 65 63 45 44 42 42 37 31 28 19 22 16 11 9 17 18 12 12 5 357 351 345 354 11 22 12 358 358 356 353 353 347 342 340 334 329 327 328 331
145 141 128 133 135 133 128 122 122 117 113 117 122 128 136 128 129 121 115 113 113 118 125 125 121 116 115 110 107 108 113 116 111 109 113 106 91 78 82 89 84 96 97 89 67 66 66 57 50 43 41 40 37 31 27 21 20 23 15 359 23 16 8 10 356 356 3 5 5 20 20 8 17 8 360 359 354 349 344 335 330 329 324 325 328
121 127 135 141 138 124 116 117 115 114 119 124 127 123 117 110 105 107 114 119 126 130 128 128 127 127 122 117 115 120 120 117 117 117 106 101 103 109 109 106 100 94 104 91 77 52 51 58 53 48 43 41 37 31 28 26 26 22 10 356 24 9 15 11 354 14 19 8 3 13 17 24 26 14 1 356 353 346 336 330 325 322 322 324 330
130 134 135 127 116 122 120 120 125 128 128 130 128 128 114 104 108 105 102 124 130 134 137 130 127 124 121 118 117 115 111 113 112 108 104 99 92 87 90 94 109 101 93 90 78 71 57 51 51 50 47 43 41 35 22 10 359 358 352 342 22 12 23 22 13 25 18 8 7 11 27 25 27 17 5 357 348 342 335 325 323 324 322 327 336
127 130 133 127 127 129 129 132 134 133 131 127 128 129 124 119 108 96 87 78 120 138 135 124 118 113 115 117 114 113 115 111 108 107 108 111 109 95 89 78 70 55 57 61 67 67 63 54 51 53 49 47 42 32 17 1 354 348 343 322 28 24 30 28 20 27 19 12 8 4 19 18 27 19 4 355 349 339 333 323 323 326 321 327 345
143 146 135 131 135 135 133 135 134 131 126 126 129 129 121 118 123 123 117 110 110 123 124 117 112 115 113 113 109 113 112 113 108 106 105 100 100 112 104 86 67 55 49 59 66 66 61 57 52 52 54 45 35 21 28 3 343 341 340 320 32 32 28 30 29 29 25 17 10 360 8 2 13 7 5 359 341 334 331 328 323 326 319 325 344
140 135 131 134 135 129 131 136 137 132 131 128 127 122 124 132 136 136 134 139 142 132 126 120 117 118 117 117 119 121 117 114 117 112 105 104 102 84 82 77 73 68 65 60 59 58 64 60 53 50 54 49 31 20 354 5 15 348 326 323 29 44 35 31 25 23 23 17 8 358 1 2 7 9 4 353 341 334 330 320 316 314 314 328 346
119 123 126 132 132 133 136 132 135 136 132 125 128 132 133 128 128 139 138 144 134 130 123 121 120 121 121 121 119 119 119 114 108 112 111 108 99 94 80 75 68 60 49 54 62 65 68 64 59 51 45 45 35 5 356 2 357 6 355 323 30 43 40 34 28 26 22 12 7 360 3 4 8 5 356 350 340 335 331 328 325 327 305 339 2
127 125 129 130 127 129 137 139 139 136 131 132 134 135 133 130 135 136 139 145 136 126 123 122 123 123 121 122 124 122 120 121 117 104 103 103 101 91 87 80 78 73 64 66 62 66 72 73 70 61 50 41 29 7 1 1 359 358 3 340 44 42 39 29 28 30 25 14 9 3 7 8 5 2 356 351 342 337 333 330 329 345 325 320 298
128 132 133 134 133 135 134 133 135 137 135 137 137 134 132 134 130 136 155 175 130 126 128 131 131 126 120 118 119 118 112 101 99 102 97 97 91 96 93 96 94 87 79 72 65 58 57 61 65 56 47 35 26 5 1 5 2 359 358 354 57 56 45 38 27 38 30 18 13 7 10 10 2 3 0 353 347 337 335 326 349 358 335 221 270
128 133 136 136 135 137 138 136 134 134 130 132 132 123 124 126 131 138 143 94 111 143 141 122 120 121 120 120 118 115 111 111 113 118 119 109 107 110 114 114 112 102 100 93 79 72 65 58 54 54 52 37 29 1 5 7 4 1 357 343 68 48 62 45 40 50 42 29 22 16 11 8 4 3 359 355 348 343 332 358 4 5 0 358 339
139 141 141 140 134 129 126 124 122 108 93 92 87 116 128 135 140 141 141 145 151 132 117 125 128 123 122 124 123 114 107 109 112 104 100 103 105 101 105 99 89 93 98 100 91 75 68 65 59 54 50 41 28 12 12 10 9 2 352 329 67 55 60 53 41 62 64 39 36 24 15 5 1 357 358 351 347 336 339 8 6 4 9 358 2
148 146 143 141 138 133 134 132 124 118 117 125 135 136 138 140 142 140 138 139 144 143 120 120 120 122 120 117 109 102 104 109 108 105 102 97 87 99 82 71 71 67 56 51 53 61 67 72 69 57 47 39 29 18 15 16 10 2 348 50 58 57 65 71 46 71 76 53 49 29 8 6 353 351 350 347 345 339 339 10 11 7 9 2 3
143 142 142 141 138 136 133 130 133 133 135 139 138 138 142 143 138 139 138 134 129 128 140 143 116 121 120 119 116 117 116 114 111 112 117 123 118 87 89 100 98 89 79 69 69 65 60 57 57 55 49 40 31 19 18 16 12 11 5 47 68 54 41 68 59 70 96 67 52 30 15 5 354 349 344 344 343 350 343 8 11 14 10 7 1
136 139 140 140 139 136 138 136 131 125 127 138 147 139 141 138 134 136 138 137 136 138 134 112 118 124 113 113 117 124 126 125 121 119 112 93 91 102 102 105 100 100 96 96 92 82 70 59 56 63 55 45 32 20 20 16 18 12 5 2 48 49 48 27 53 59 77 98 75 43 15 6 355 347 341 341 343 348 346 353 10 11 18 17 11
138 142 141 140 138 139 137 134 132 133 141 150 150 135 133 131 133 138 133 132 139 136 128 123 116 112 112 113 117 118 118 115 114 114 96 93 90 88 94 92 103 114 115 112 104 97 94 78 72 64 60 58 42 24 19 21 22 19 13 10 31 10 13 32 25 40 41 27 24 24 3 360 356 346 341 339 340 349 335 336 357 356 8 20 12
143 144 140 141 142 141 137 137 139 142 147 147 144 136 131 131 130 120 116 121 124 114 108 107 108 108 106 103 103 109 110 117 118 103 106 118 133 131 134 126 112 105 110 118 120 115 110 102 84 70 71 65 59 38 19 24 31 27 20 18 33 22 2 360 33 21 30 25 12 6 351 345 348 346 343 337 336 340 342 314 347 346 347 2 1
148 142 140 143 147 140 137 139 139 142 145 146 139 137 137 131 126 124 120 104 98 99 98 95 99 107 113 108 93 80 77 77 81 90 87 76 71 75 69 74 75 82 95 104 116 122 122 120 112 99 84 75 79 72 31 26 36 38 30 27 21 19 4 349 40 18 27 20 7 357 339 340 340 342 342 336 333 339 359 355 356 337 315 294 295
137 137 146 145 138 135 136 138 142 144 120 119 146 120 97 103 104 107 105 101 100 101 102 102 100 96 94 92 88 86 86 86 92 98 99 96 99 97 95 94 114 130 131 129 127 124 130 132 134 123 112 110 91 97 91 22 19 30 39 33 26 12 3 357 10 23 13 23 354 352 333 330 334 336 337 336 331 343 355 15 356 326 311 317 349
138 148 148 137 136 141 140 141 147 138 119 114 105 112 120 117 121 123 125 121 116 114 114 113 113 112 109 106 105 113 117 121 118 112 111 110 105 100 99 111 122 125 124 126 116 114 99 93 108 127 143 147 146 111 116 100 30 3 6 25 21 7 355 1 349 357 358 350 344 341 330 332 329 329 334 338 330 346 359 356 1 9 315 12 5
147 149 140 139 143 140 142 146 139 135 136 137 132 131 133 132 133 138 132 131 129 128 126 128 130 129 130 131 132 128 122 122 124 121 121 128 132 142 151 156 164 157 156 142 134 120 112 102 93 77 71 77 114 135 96 69 24 347 337 338 345 347 343 343 334 345 358 341 328 329 319 320 321 328 341 341 354 6 0 5 9 4 11 17 11
153 145 143 148 145 144 143 142 142 140 134 135 138 133 133 136 138 140 144 143 139 134 135 136 134 131 132 131 126 125 122 114 112 112 111 114 122 128 122 135 128 125 128 130 131 129 114 107 93 81 71 60 42 42 43 26 14 353 315 310 318 331 321 339 339 341 349 337 323 308 309 313 327 348 344 353 356 2 9 4 15 11 6 23 14
143 140 148 144 145 143 143 137 137 140 138 136 135 138 137 135 142 146 146 138 133 136 139 135 134 136 133 128 125 124 124 129 127 132 133 130 128 132 128 124 116 100 108 111 95 97 99 98 102 95 88 69 53 40 37 29 22 9 7 5 17 10 358 350 18 13 351 338 331 317 303 344 2 352 352 5 1 359 15 7 9 21 11 17 25
147 140 136 142 147 145 138 136 139 138 135 136 136 136 135 140 144 142 135 138 141 142 137 135 134 131 129 125 122 116 117 120 123 125 128 105 62 52 38 27 19 36 74 62 75 97 100 107 103 97 95 92 65 52 31 26 20 13 5 358 16 5 1 353 1 357 350 335 321 317 4 0 35 358 355 5 13 359 7 16 7 16 15 18 19
147 144 148 151 150 143 137 139 137 135 136 137 137 139 142 141 138 137 138 138 136 136 138 138 133 127 126 126 120 116 90 63 45 37 27 55 80 65 54 42 32 13 351 76 59 39 37 33 54 81 90 78 77 57 36 15 12 6 349 352 353 359 356 351 346 350 333 325 308 338 7 4 20 11 357 356 16 5 7 13 15 14 13 12 20
159 156 153 151 144 144 143 135 135 137 139 139 140 142 142 140 141 141 140 139 140 143 135 132 131 130 117 122 129 102 95 92 77 67 57 35 32 83 88 73 39 10 18 42 60 41 41 63 43 26 44 81 61 49 31 349 300 305 308 328 345 341 337 329 329 339 325 320 311 358 7 10 17 20 358 356 6 6 11 10 16 17 14 4 6
159 150 149 156 159 127 131 138 139 141 141 141 140 140 142 144 142 140 141 140 140 137 136 132 127 125 134 134 116 107 107 103 99 92 81 64 47 49 50 83 76 41 56 59 69 72 39 74 83 55 39 62 61 67 316 341 346 339 334 327 309 314 314 314 329 332 332 308 329 1 357 24 7 26 2 351 358 4 357 12 5 17 14 11 359
153 142 132 121 115 127 140 137 140 140 141 142 142 143 143 140 140 141 143 142 142 137 132 129 131 143 133 117 117 121 122 116 111 109 102 103 99 65 58 61 72 73 78 80 83 70 58 51 68 110 75 95 114 104 24 342 332 328 325 326 325 320 321 314 343 5 345 322 353 13 353 22 14 18 15 349 353 13 353 8 9 2 17 12 3